Location: Allos
(44.2333°N, 6.6333°E)
Time: 12:59:13
(UTC+00:00)

IRS-1C Rocket - Pass Details

Date: 01 December 2020
Orbit: 800 x 806 km, 99.0° (Epoch: 25 January)

Event Time Altitude Azimuth Distance (km) Brightness Sun altitude
Rises 17:36:45 0° 159° (SSE) 3,307 7.2 -17.5°
Reaches altitude 10° 17:39:04 10° 157° (SSE) 2,381 6.5 -17.9°
Maximum altitude 17:44:19 76° 73° (ENE) 836 4.0 -18.9°
Drops below altitude 10° 17:49:37 10° 349° (N) 2,397 6.6 -19.8°
Sets 17:51:57 0° 348° (NNW) 3,331 7.3 -20.2°
